Chippewa, MI

6:05 AM EST on December 06, 2019 (GMT -0500)
Chippewa County International

Weather History for KCIU - October, 2019

Change the Weather History Date:

Wednesday, October 16, 2019

  Actual Average Record
Temperature  
Mean Temperature 41 °F -  
Max Temperature 44 °F 54 °F 64 °F (1988)
Min Temperature 39 °F 32 °F 22 °F (1980)
Degree Days  
Heating Degree Days 24    
Moisture  
Dew Point 38 °F    
Average Humidity 90    
Maximum Humidity 100    
Minimum Humidity 70    
Precipitation  
Precipitation 1.23 in - - ()
Sea Level Pressure  
Sea Level Pressure 29.70 in    
Wind  
Wind Speed 14 mph ()    
Max Wind Speed 20 mph    
Max Gust Speed 28 mph    
Visibility 8.4 miles    
Events Rain    
Averages and records for this station are not official NWS values.
T = Trace of Precipitation, MM = Missing Value Source: Averaged Metar Reports

Daily Weather History Graph

Daily Weather History Graph

Search for Another Location

Airport or City:

Astronomy

Oct. 16, 2019 Rise Set
Actual Time 7:56 AM EDT 6:50 PM EDT
Civil Twilight 7:25 AM EDT 7:20 PM EDT
Nautical Twilight 6:50 AM EDT 7:55 PM EDT
Astronomical Twilight 6:16 AM EDT 8:29 PM EDT
Moon 8:35 PM EDT (10/16) 10:32 AM EDT (10/16)
Length of Visible Light 11h 54m
Length of Day
10h 53m
Waning Gibbous, 93% of the Moon is Illuminated
Oct 16
Waning Gibbous
Oct 21
Last Quarter
Oct 27
New
Nov 4
First Quarter
Nov 12
Full

Hourly Weather History & Observations

Time (EDT) Temp. Windchill Dew Point Humidity Pressure Visibility Wind Dir Wind Speed Gust Speed Precip Events Conditions
12:56 AM 43.0 °F 35.7 °F 42.1 °F 97% 29.70 in 4.0 mi ENE 15.0 mph - 0.01 in Rain Light Rain
1:56 AM 43.0 °F 34.8 °F 42.1 °F 97% 29.67 in 7.0 mi ENE 18.4 mph 25.3 mph 0.03 in Rain Light Rain
2:56 AM 43.0 °F 34.5 °F 42.1 °F 97% 29.66 in 3.0 mi ENE 19.6 mph 26.5 mph 0.00 in Rain Light Rain
3:56 AM 43.0 °F 35.4 °F 42.1 °F 97% 29.64 in 6.0 mi NE 16.1 mph - 0.01 in Rain Light Rain
4:56 AM 42.1 °F 33.9 °F 41.0 °F 96% 29.63 in 6.0 mi NE 17.3 mph - 0.10 in Rain Rain
5:56 AM 41.0 °F 32.5 °F 39.9 °F 96% 29.63 in 7.0 mi NNE 17.3 mph - 0.12 in Rain Rain
6:08 AM 41.0 °F 33.1 °F 39.2 °F 93% 29.61 in 9.0 mi NNE 15.0 mph - 0.03 in Rain Rain
6:56 AM 41.0 °F 32.8 °F 39.9 °F 96% 29.65 in 9.0 mi NNE 16.1 mph 24.2 mph 0.13 in Rain Rain
7:54 AM 39.2 °F 30.5 °F 39.2 °F 100% 29.64 in 4.0 mi NNE 16.1 mph 21.9 mph 0.27 in Rain Light Rain
7:56 AM 39.9 °F 31.4 °F 39.0 °F 97% 29.66 in 4.0 mi NNE 16.1 mph 21.9 mph 0.28 in Rain Light Rain
8:15 AM 39.2 °F 32.5 °F 39.2 °F 100% 29.64 in 5.0 mi NNE 10.4 mph - 0.06 in Rain Light Rain
8:47 AM 39.2 °F 31.2 °F 39.2 °F 100% 29.65 in 8.0 mi NNE 13.8 mph - 0.13 in Rain Light Rain
8:56 AM 39.9 °F 32.1 °F 39.0 °F 97% 29.67 in 8.0 mi NNE 13.8 mph - 0.14 in Rain Light Rain
9:28 AM 41.0 °F 33.1 °F 39.2 °F 93% 29.65 in 10.0 mi North 15.0 mph 23.0 mph 0.03 in Rain Light Rain
9:49 AM 41.0 °F 32.8 °F 39.2 °F 93% 29.65 in 10.0 mi North 16.1 mph - 0.04 in Rain Light Rain
9:56 AM 41.0 °F 32.8 °F 39.0 °F 93% 29.67 in 10.0 mi North 16.1 mph - 0.05 in Rain Light Rain
10:34 AM 41.0 °F 33.5 °F 39.2 °F 93% 29.66 in 9.0 mi North 13.8 mph - 0.04 in Rain Light Rain
10:56 AM 41.0 °F 33.5 °F 39.9 °F 96% 29.68 in 10.0 mi North 13.8 mph - 0.06 in Rain Light Rain
11:52 AM 41.0 °F 32.8 °F 39.2 °F 93% 29.66 in 10.0 mi North 16.1 mph 21.9 mph 0.04 in Rain Rain
11:56 AM 41.0 °F 32.8 °F 39.0 °F 93% 29.68 in 10.0 mi North 16.1 mph 21.9 mph 0.05 in Rain Light Rain
12:14 PM 42.8 °F 34.5 °F 39.2 °F 87% 29.67 in 10.0 mi North 18.4 mph 23.0 mph 0.01 in Rain Light Rain
12:56 PM 42.1 °F 34.9 °F 39.0 °F 89% 29.70 in 10.0 mi North 13.8 mph 25.3 mph 0.02 in Rain Light Rain
1:56 PM 41.0 °F 31.9 °F 37.9 °F 89% 29.70 in 10.0 mi NNW 19.6 mph 27.6 mph 0.03 in Rain Light Rain
2:56 PM 41.0 °F 31.9 °F 39.0 °F 93% 29.72 in 8.0 mi NNW 19.6 mph 27.6 mph 0.10 in Rain Rain
3:56 PM 42.1 °F 34.9 °F 39.0 °F 89% 29.73 in 9.0 mi NNW 13.8 mph - 0.08 in Rain Light Rain
4:56 PM 42.1 °F 34.2 °F 37.9 °F 85% 29.75 in 10.0 mi North 16.1 mph 26.5 mph 0.02 in Rain Light Rain
5:56 PM 43.0 °F 35.1 °F 37.0 °F 80% 29.77 in 10.0 mi North 17.3 mph 23.0 mph 0.00 in Rain Light Rain
6:56 PM 43.0 °F 36.8 °F 36.0 °F 76% 29.79 in 10.0 mi North 11.5 mph - 0.00 in   Overcast
7:56 PM 43.0 °F 35.7 °F 35.1 °F 74% 29.81 in 10.0 mi North 15.0 mph 20.7 mph N/A   Overcast
8:56 PM 41.0 °F 31.9 °F 32.0 °F 70% 29.83 in 10.0 mi North 19.6 mph 25.3 mph N/A   Clear
9:56 PM 41.0 °F 33.5 °F 33.1 °F 73% 29.86 in 10.0 mi North 13.8 mph 21.9 mph N/A   Partly Cloudy
10:56 PM 41.0 °F 33.1 °F 32.0 °F 70% 29.86 in 10.0 mi North 15.0 mph 24.2 mph N/A   Scattered Clouds
11:56 PM 41.0 °F 35.2 °F 33.1 °F 73% 29.88 in 10.0 mi North 9.2 mph - N/A   Scattered Clouds